Previsão horária em Bar-le-Duc

Hoje, 26 Julho, Segunda-feira

Tempo Temperatura Precipitação Vento Pressão Humidade
00:00 +16°C° 0 mm 3 m/s 737 mmHg 95%
01:00 +14°C° 0 mm 3 m/s 737 mmHg 96%
02:00 +14°C° 0 mm 3 m/s 737 mmHg 96%
03:00 +14°C° 0 mm 3 m/s 737 mmHg 96%
04:00 +14°C° 0 mm 3 m/s 738 mmHg 96%
05:00 +16°C° 0 mm 3 m/s 738 mmHg 96%
06:00 +16°C° 0 mm 3 m/s 738 mmHg 95%
07:00 +17°C° 0 mm 4 m/s 739 mmHg 91%
08:00 +18°C° 0 mm 4 m/s 739 mmHg 86%
09:00 +19°C° 0 mm 5 m/s 739 mmHg 81%
10:00 +20°C° 0.2 mm 5 m/s 739 mmHg 79%
11:00 +20°C° 0.2 mm 5 m/s 739 mmHg 77%
12:00 +21°C° 0.2 mm 5 m/s 739 mmHg 75%
13:00 +21°C° 0.4 mm 5 m/s 739 mmHg 77%
14:00 +21°C° 0.4 mm 5 m/s 739 mmHg 78%
15:00 +21°C° 0.4 mm 5 m/s 739 mmHg 80%
16:00 +20°C° 0.5 mm 4 m/s 739 mmHg 83%
17:00 +20°C° 0.5 mm 4 m/s 739 mmHg 85%
18:00 +19°C° 0.5 mm 3 m/s 739 mmHg 88%
19:00 +18°C° 0 mm 3 m/s 739 mmHg 90%
20:00 +17°C° 0 mm 3 m/s 739 mmHg 92%
21:00 +16°C° 0 mm 2 m/s 740 mmHg 94%
22:00 +16°C° 0.2 mm 2 m/s 740 mmHg 94%
23:00 +16°C° 0.2 mm 2 m/s 740 mmHg 95%

Amanhã, 27 Julho, Terça-feira

Tempo Temperatura Precipitação Vento Pressão Humidade
00:00 +15°C° 0.2 mm 2 m/s 740 mmHg 95%
01:00 +15°C° 0 mm 2 m/s 740 mmHg 95%
02:00 +15°C° 0 mm 2 m/s 740 mmHg 94%
03:00 +14°C° 0 mm 3 m/s 739 mmHg 94%
04:00 +16°C° 0.1 mm 3 m/s 739 mmHg 93%
05:00 +16°C° 0.1 mm 3 m/s 739 mmHg 93%
06:00 +17°C° 0.1 mm 3 m/s 739 mmHg 92%
07:00 +17°C° 0.1 mm 3 m/s 740 mmHg 90%
08:00 +18°C° 0.1 mm 3 m/s 740 mmHg 88%
09:00 +19°C° 0.1 mm 3 m/s 740 mmHg 85%
10:00 +20°C° 0.2 mm 4 m/s 740 mmHg 82%
11:00 +21°C° 0.2 mm 4 m/s 740 mmHg 79%
12:00 +21°C° 0.2 mm 5 m/s 740 mmHg 76%
13:00 +21°C° 0.5 mm 4 m/s 739 mmHg 79%
14:00 +20°C° 0.5 mm 4 m/s 739 mmHg 81%
15:00 +19°C° 0.5 mm 4 m/s 739 mmHg 84%
16:00 +18°C° 0.1 mm 3 m/s 739 mmHg 86%
17:00 +17°C° 0.1 mm 3 m/s 739 mmHg 88%
18:00 +17°C° 0.1 mm 2 m/s 739 mmHg 90%
19:00 +16°C° 0 mm 2 m/s 739 mmHg 91%
20:00 +16°C° 0 mm 2 m/s 739 mmHg 93%
21:00 +16°C° 0 mm 2 m/s 740 mmHg 94%
22:00 +14°C° 0.1 mm 3 m/s 740 mmHg 95%
23:00 +14°C° 0.1 mm 3 m/s 740 mmHg 96%

Depois de amanhã, 28 Julho, Quarta-feira

Tempo Temperatura Precipitação Vento Pressão Humidade
00:00 +14°C° 0.1 mm 3 m/s 740 mmHg 96%
01:00 +13°C° 0 mm 4 m/s 740 mmHg 96%
02:00 +13°C° 0 mm 4 m/s 740 mmHg 96%
03:00 +13°C° 0 mm 4 m/s 740 mmHg 96%
04:00 +14°C° 0 mm 4 m/s 740 mmHg 96%
05:00 +14°C° 0 mm 4 m/s 740 mmHg 95%
06:00 +14°C° 0 mm 4 m/s 740 mmHg 95%
07:00 +15°C° 0 mm 4 m/s 740 mmHg 92%
08:00 +17°C° 0 mm 4 m/s 740 mmHg 90%
09:00 +17°C° 0 mm 5 m/s 740 mmHg 87%
10:00 +19°C° 0.2 mm 5 m/s 740 mmHg 81%
11:00 +20°C° 0.2 mm 5 m/s 740 mmHg 76%
12:00 +21°C° 0.2 mm 5 m/s 740 mmHg 70%
13:00 +22°C° 0.1 mm 5 m/s 740 mmHg 69%
14:00 +22°C° 0.1 mm 5 m/s 740 mmHg 69%
15:00 +22°C° 0.1 mm 5 m/s 740 mmHg 68%
16:00 +21°C° 0 mm 4 m/s 740 mmHg 72%
17:00 +21°C° 0 mm 4 m/s 740 mmHg 75%
18:00 +20°C° 0 mm 3 m/s 740 mmHg 79%
19:00 +19°C° 0 mm 3 m/s 740 mmHg 82%
20:00 +17°C° 0 mm 3 m/s 740 mmHg 85%
21:00 +16°C° 0 mm 3 m/s 740 mmHg 88%
22:00 +16°C° 0 mm 2 m/s 740 mmHg 89%
23:00 +15°C° 0 mm 2 m/s 740 mmHg 90%

29 Julho, Quinta-feira

Tempo Temperatura Precipitação Vento Pressão Humidade
00:00 +14°C° 0 mm 2 m/s 740 mmHg 91%
01:00 +14°C° 0 mm 2 m/s 740 mmHg 91%
02:00 +14°C° 0 mm 2 m/s 740 mmHg 92%
03:00 +14°C° 0 mm 2 m/s 740 mmHg 92%
04:00 +14°C° 0 mm 2 m/s 740 mmHg 90%
05:00 +15°C° 0 mm 2 m/s 740 mmHg 89%
06:00 +16°C° 0 mm 1 m/s 740 mmHg 87%
07:00 +17°C° 0 mm 2 m/s 740 mmHg 82%
08:00 +19°C° 0 mm 3 m/s 740 mmHg 77%
09:00 +20°C° 0 mm 3 m/s 740 mmHg 73%
10:00 +21°C° 0 mm 4 m/s 740 mmHg 70%
11:00 +21°C° 0 mm 4 m/s 740 mmHg 68%
12:00 +22°C° 0 mm 4 m/s 740 mmHg 66%
13:00 +22°C° 0 mm 4 m/s 739 mmHg 65%
14:00 +23°C° 0 mm 4 m/s 739 mmHg 64%
15:00 +23°C° 0 mm 4 m/s 738 mmHg 63%
16:00 +22°C° 0 mm 3 m/s 738 mmHg 67%
17:00 +23°C° 0 mm 2 m/s 738 mmHg 72%
18:00 +21°C° 0 mm 2 m/s 737 mmHg 77%
19:00 +20°C° 0 mm 2 m/s 737 mmHg 79%
20:00 +18°C° 0 mm 2 m/s 737 mmHg 80%
21:00 +17°C° 0 mm 2 m/s 737 mmHg 82%
22:00 +17°C° 0 mm 2 m/s 737 mmHg 83%
23:00 +16°C° 0 mm 3 m/s 737 mmHg 84%

30 Julho, Sexta-feira

Tempo Temperatura Precipitação Vento Pressão Humidade
00:00 +15°C° 0 mm 4 m/s 737 mmHg 85%
01:00 +14°C° 0 mm 4 m/s 738 mmHg 87%
02:00 +13°C° 0 mm 3 m/s 738 mmHg 89%
03:00 +12°C° 0 mm 3 m/s 738 mmHg 91%
04:00 +12°C° 0 mm 3 m/s 738 mmHg 91%
05:00 +13°C° 0 mm 3 m/s 739 mmHg 90%
06:00 +13°C° 0 mm 3 m/s 739 mmHg 89%
07:00 +14°C° 0 mm 3 m/s 739 mmHg 85%
08:00 +15°C° 0 mm 4 m/s 739 mmHg 80%
09:00 +16°C° 0 mm 5 m/s 739 mmHg 76%
10:00 +17°C° 0 mm 5 m/s 739 mmHg 70%
11:00 +19°C° 0 mm 5 m/s 739 mmHg 65%
12:00 +20°C° 0 mm 6 m/s 739 mmHg 60%
13:00 +21°C° 0 mm 5 m/s 739 mmHg 59%
14:00 +21°C° 0 mm 5 m/s 739 mmHg 58%
15:00 +21°C° 0 mm 5 m/s 739 mmHg 57%
16:00 +20°C° 0 mm 4 m/s 739 mmHg 62%
17:00 +20°C° 0 mm 3 m/s 738 mmHg 67%
18:00 +19°C° 0 mm 2 m/s 738 mmHg 72%
19:00 +18°C° 0 mm 2 m/s 738 mmHg 74%
20:00 +17°C° 0 mm 2 m/s 738 mmHg 76%
21:00 +16°C° 0 mm 2 m/s 739 mmHg 77%
22:00 +16°C° 0.1 mm 2 m/s 739 mmHg 78%
23:00 +16°C° 0.1 mm 2 m/s 739 mmHg 78%

31 Julho, Sábado

Tempo Temperatura Precipitação Vento Pressão Humidade
00:00 +16°C° 0.1 mm 2 m/s 739 mmHg 79%
01:00 +15°C° 0.1 mm 2 m/s 739 mmHg 83%
02:00 +15°C° 0.1 mm 2 m/s 738 mmHg 87%
03:00 +14°C° 0.1 mm 2 m/s 738 mmHg 91%
04:00 +14°C° 0 mm 2 m/s 739 mmHg 91%
05:00 +15°C° 0 mm 2 m/s 739 mmHg 92%
06:00 +14°C° 0 mm 3 m/s 739 mmHg 92%
07:00 +16°C° 0 mm 3 m/s 739 mmHg 85%
08:00 +17°C° 0 mm 4 m/s 739 mmHg 79%
09:00 +19°C° 0 mm 5 m/s 739 mmHg 73%
10:00 +20°C° 0 mm 5 m/s 739 mmHg 69%
11:00 +20°C° 0 mm 5 m/s 739 mmHg 65%
12:00 +21°C° 0 mm 5 m/s 739 mmHg 61%
13:00 +21°C° 0.1 mm 4 m/s 739 mmHg 65%
14:00 +20°C° 0.1 mm 4 m/s 739 mmHg 68%
15:00 +20°C° 0.1 mm 3 m/s 739 mmHg 71%
16:00 +20°C° 0.1 mm 3 m/s 739 mmHg 73%
17:00 +19°C° 0.1 mm 3 m/s 739 mmHg 75%
18:00 +18°C° 0.1 mm 3 m/s 739 mmHg 77%
19:00 +18°C° 0 mm 2 m/s 739 mmHg 77%
20:00 +17°C° 0 mm 2 m/s 739 mmHg 77%
21:00 +16°C° 0 mm 2 m/s 739 mmHg 77%
22:00 +16°C° 0 mm 1 m/s 739 mmHg 79%
23:00 +16°C° 0 mm 1 m/s 739 mmHg 80%
Mostrar mais